Total_Precipitation_Accumulation
1.64 1.70 1.81 1.79 1.87 1.97 2.03 1.96 2.06 2.17 2.31 2.28 2.21 2.16 2.02 1.96 2.04 2.13 2.00 2.13 2.14 2.14 2.13 2.20 2.23 2.38 2.53 2.50 2.55 2.60 2.87 3.15 3.06 2.84 2.61 2.43 2.33 2.29 2.13 2.07 1.98 1.88 1.70
1.62 1.65 1.77 1.84 1.82 1.78 1.75 1.79 1.85 1.89 1.97 1.99 1.95 1.96 1.95 2.03 2.13 2.04 1.98 2.01 2.09 2.05 2.12 2.27 2.15 2.31 2.47 2.41 2.51 2.52 2.69 3.02 3.16 3.26 3.22 2.92 2.65 2.51 2.44 2.23 1.85 1.69 1.72
1.66 1.65 1.75 1.71 1.67 1.72 1.85 1.91 1.89 1.90 1.93 1.90 1.89 1.89 1.91 2.09 2.21 2.16 2.13 2.20 2.22 2.10 2.19 2.23 2.11 2.23 2.29 2.31 2.37 2.42 2.59 2.80 3.07 3.05 3.10 3.01 2.85 2.60 2.70 2.42 2.11 2.05 1.68
1.61 1.71 1.83 1.80 1.81 1.91 2.02 2.10 2.04 1.96 1.99 2.04 2.04 1.99 2.00 1.95 1.99 2.13 2.27 2.26 2.23 2.13 2.12 2.04 1.91 1.91 1.99 2.16 2.15 2.28 2.51 2.72 2.90 2.84 2.90 2.99 3.06 3.05 3.08 2.84 2.65 2.42 2.05
1.63 1.79 1.88 1.92 1.93 1.95 1.97 2.05 2.05 1.94 1.92 2.12 2.14 2.10 2.08 1.98 1.86 1.95 2.06 2.01 2.05 2.02 1.96 1.78 1.58 1.61 1.69 1.76 1.71 2.05 2.36 2.49 2.58 2.65 2.75 2.94 3.08 3.30 3.12 2.99 2.87 2.81 2.51
1.51 1.66 1.72 1.85 1.96 1.95 1.90 1.94 1.93 1.97 2.02 2.07 2.02 2.03 1.94 1.67 1.73 1.69 1.66 1.71 1.78 1.81 1.84 1.81 1.64 1.50 1.42 1.44 1.42 1.59 1.92 2.07 2.27 2.54 2.67 2.88 2.98 3.02 3.20 3.18 3.13 2.99 2.72
1.40 1.50 1.63 1.77 1.86 1.86 1.79 1.85 1.95 1.98 1.96 1.86 1.80 1.81 1.77 1.70 1.56 1.38 1.35 1.46 1.64 1.72 1.76 1.78 1.53 1.38 1.42 1.29 1.37 1.44 1.46 1.54 1.71 2.09 2.37 2.48 2.54 2.61 2.93 3.04 3.04 2.93 2.85
1.43 1.52 1.60 1.71 1.75 1.76 1.74 1.70 1.78 1.82 1.82 1.83 1.72 1.71 1.80 1.70 1.60 1.36 1.26 1.23 1.43 1.48 1.47 1.48 1.50 1.48 1.40 1.45 1.44 1.42 1.33 1.33 1.40 1.44 1.61 1.83 2.11 2.37 2.58 2.79 3.06 3.02 2.95
1.41 1.53 1.63 1.73 1.78 1.78 1.81 1.77 1.82 1.82 1.77 1.77 1.76 1.79 1.79 1.73 1.67 1.44 1.33 1.32 1.44 1.46 1.48 1.49 1.56 1.62 1.62 1.48 1.42 1.44 1.45 1.48 1.43 1.45 1.40 1.47 1.61 1.75 1.92 2.20 2.55 2.88 3.09
1.42 1.53 1.64 1.75 1.89 1.87 1.94 1.96 1.93 1.83 1.76 1.78 1.84 1.82 1.74 1.69 1.56 1.35 1.33 1.36 1.55 1.65 1.77 1.76 1.65 1.53 1.51 1.40 1.40 1.49 1.47 1.47 1.40 1.38 1.33 1.29 1.28 1.41 1.57 1.75 2.03 2.41 2.71
1.54 1.62 1.72 1.80 1.86 1.85 1.93 1.99 1.99 1.93 1.93 1.82 1.72 1.74 1.74 1.64 1.44 1.18 1.16 1.22 1.46 1.68 1.72 1.65 1.51 1.35 1.22 1.18 1.18 1.30 1.40 1.35 1.35 1.40 1.44 1.42 1.42 1.46 1.50 1.57 1.84 2.08 2.23
1.70 1.68 1.75 1.86 1.72 1.72 1.96 2.04 2.06 2.09 2.06 1.95 1.84 1.77 1.79 1.74 1.46 1.26 1.20 1.22 1.37 1.61 1.78 1.70 1.53 1.35 1.20 1.13 1.00 1.07 1.15 1.11 1.18 1.36 1.43 1.44 1.45 1.45 1.51 1.61 1.79 1.99 2.17
1.70 1.74 1.74 1.79 1.91 1.99 2.06 2.11 2.09 2.05 2.04 2.02 1.98 1.89 1.87 1.89 1.81 1.53 1.38 1.34 1.42 1.48 1.61 1.75 1.61 1.34 1.15 1.07 1.05 0.97 0.88 0.89 1.04 1.16 1.24 1.32 1.37 1.44 1.55 1.72 1.93 2.09 2.14
1.83 1.90 1.88 1.84 1.90 2.08 2.26 2.27 2.19 2.05 2.09 2.13 2.04 2.03 2.04 2.06 1.96 1.74 1.56 1.45 1.47 1.45 1.46 1.48 1.43 1.29 1.12 1.14 1.16 1.03 0.91 0.98 1.04 1.04 1.11 1.23 1.29 1.38 1.52 1.64 1.82 2.03 2.15
2.03 2.01 2.01 2.03 2.07 2.15 2.15 2.14 2.13 2.08 2.02 2.07 2.06 2.04 2.04 2.00 1.89 1.77 1.64 1.59 1.57 1.51 1.42 1.44 1.41 1.41 1.28 1.23 1.27 1.26 1.22 1.25 1.20 1.14 1.17 1.20 1.25 1.31 1.38 1.52 1.68 1.80 1.90
2.29 2.19 2.18 2.16 2.18 2.16 2.18 2.01 1.88 1.81 1.74 1.65 1.68 1.70 1.66 1.64 1.60 1.51 1.50 1.48 1.44 1.42 1.33 1.42 1.53 1.52 1.47 1.45 1.43 1.41 1.41 1.37 1.36 1.39 1.37 1.31 1.30 1.31 1.30 1.37 1.51 1.59 1.62
2.45 2.39 2.29 2.22 2.14 2.10 2.17 2.17 2.07 1.95 1.90 1.75 1.60 1.52 1.50 1.46 1.39 1.32 1.32 1.36 1.36 1.33 1.27 1.39 1.55 1.59 1.58 1.59 1.53 1.49 1.52 1.46 1.46 1.47 1.43 1.40 1.42 1.43 1.40 1.42 1.51 1.62 1.61
2.37 2.32 2.25 2.21 2.13 2.09 2.16 2.21 2.14 2.09 2.07 1.94 1.74 1.63 1.47 1.31 1.22 1.21 1.28 1.29 1.27 1.26 1.33 1.52 1.69 1.69 1.69 1.66 1.58 1.51 1.51 1.48 1.46 1.46 1.46 1.42 1.43 1.49 1.51 1.48 1.49 1.56 1.57
2.32 2.24 2.19 2.15 2.19 2.24 2.27 2.31 2.26 2.22 2.18 2.09 1.85 1.68 1.55 1.31 1.20 1.19 1.20 1.18 1.31 1.41 1.49 1.60 1.64 1.64 1.66 1.61 1.52 1.47 1.50 1.47 1.45 1.48 1.47 1.47 1.46 1.54 1.55 1.52 1.49 1.53 1.48
2.38 2.35 2.23 2.09 2.06 2.15 2.24 2.19 2.17 2.20 2.17 2.10 1.98 1.76 1.50 1.31 1.23 1.24 1.19 1.22 1.32 1.40 1.44 1.45 1.44 1.43 1.47 1.49 1.49 1.50 1.56 1.53 1.52 1.52 1.46 1.44 1.45 1.49 1.50 1.51 1.49 1.47 1.43
2.12 2.05 1.99 1.83 1.79 1.82 1.96 2.03 2.05 2.14 2.09 1.95 1.83 1.74 1.52 1.24 1.25 1.28 1.28 1.27 1.31 1.35 1.36 1.37 1.36 1.32 1.30 1.35 1.40 1.42 1.46 1.48 1.44 1.40 1.38 1.38 1.35 1.41 1.40 1.37 1.37 1.33 1.32
1.99 1.94 1.82 1.71 1.72 1.79 1.88 1.93 2.01 2.09 2.04 1.93 1.76 1.67 1.59 1.34 1.29 1.26 1.23 1.22 1.22 1.24 1.25 1.33 1.36 1.31 1.26 1.31 1.33 1.35 1.35 1.31 1.27 1.24 1.21 1.19 1.21 1.26 1.27 1.29 1.32 1.32 1.32
2.15 2.06 2.00 1.94 1.84 1.89 1.88 1.92 2.03 1.99 1.91 1.89 1.82 1.69 1.59 1.55 1.46 1.36 1.28 1.22 1.19 1.19 1.17 1.19 1.22 1.20 1.17 1.16 1.17 1.17 1.12 1.08 1.06 1.00 1.03 1.06 1.10 1.16 1.18 1.20 1.27 1.33 1.33
2.17 2.17 2.06 1.93 1.84 1.79 1.80 1.90 1.93 1.83 1.71 1.70 1.66 1.55 1.52 1.52 1.45 1.36 1.20 1.13 1.13 1.11 1.06 1.02 0.97 0.92 0.92 0.94 0.97 0.98 0.94 0.92 0.92 0.93 0.96 1.04 1.09 1.13 1.16 1.20 1.25 1.30 1.31
1.96 2.04 2.06 1.96 1.81 1.68 1.62 1.64 1.64 1.58 1.53 1.50 1.50 1.48 1.47 1.40 1.32 1.23 1.15 1.12 1.09 1.03 0.93 0.89 0.88 0.88 0.86 0.84 0.84 0.86 0.93 0.94 0.95 0.91 0.92 1.00 1.07 1.14 1.14 1.17 1.23 1.28 1.27
1.82 1.84 1.79 1.70 1.57 1.46 1.43 1.45 1.43 1.36 1.32 1.26 1.23 1.22 1.16 1.13 1.10 1.04 0.98 0.97 0.97 0.96 0.91 0.88 0.89 0.90 0.90 0.87 0.83 0.83 0.82 0.78 0.81 0.83 0.80 0.82 0.94 1.03 1.03 0.98 0.97 1.07 1.10